Main page
METAR-TAF:

METAR-TAF

Airports :

Oil platform

D15-fa-1, Netherlands

latitude: 54-19-32N, longitude: 2-56-09E, elevation: 36 m

Current weather observation

The report was made 10 minutes ago, at 22:25 UTC
Wind 3 kt from the East/Northeast, varying between North and East/Southeast
Temperature 16°C
Humidity 82%
Pressure 999 hPa
Visibility 10 km or more

METAR: EHDV 302225Z AUTO 06003KT 350V110 9999 FEW032/// 16/13 Q0999

Time: 00:35 (22:35 UTC)


TAF: missing

Weather observations and forecasts of more than 4000 airports (METAR and TAF reports).

The available stations are represented by yellow and red dots on the map.

Hover mouse over dot to see the name of the station.

Then click to see weather observations and forecasts.

To change the map : click on the green buttons with a black cross to zoom in, on the green button with a dash to zoom out, or on the green arrows for adjacent maps.


METAR-TAF: